Weather in Nemuy

Russia / Khabarovsk Krai     55°40′16″N   136°19′57″E
temp.,
°C
wind,
m/s
gust,
m/s
humid.,
%
clouds,
%
prec.,
mm/h
press.,
hPa
HPBL,
m
27 february, sat
sat2701:00−24nw43720 0.0 102935
04:00−23nw33690 0.0 102729
07:00−22nw33660 0.0 102726
10:00−17nw22650 0.0 102668
13:00−12sse21630 0.0 1024349
16:00−14se228133 0.0 1020296
19:00−21se1297100 0.0 102020
22:00−21e1196100 0.0 1018100
28 february, sun
sun2801:00−22ese1199100 0.9 101673
04:00−22ene1199100 2.1 101552
07:00−23ne1199100 0.5 101526
10:00−21nne1194100 0.8 1015242
13:00−18ssw1187100 0.2 1016385
16:00−16w1380100 0.3 1017570
19:00−19nw5977100 0.1 1019263
22:00−22nw4781100 0.1 1022241
1 march, mon
mon101:00−24nw5979100 0.0 1022335
04:00−26nw51278100 0.0 1024675
07:00−26nw61278100 0.0 1024550
10:00−25nw81373100 0.0 10251008
13:00−24nw7117096 0.0 10231079
16:00−24nw7127098 0.0 10221102
19:00−27nw6117561 0.0 1024324
22:00−28nw597845 0.0 1024267
2 march, tue
tue201:00−29nw587940 0.0 1024259
04:00−29nw588048 0.0 1024292
07:00−29nw478092 0.0 1024249
10:00−27nw6107385 0.0 1024983
13:00−24nw7117098 0.0 10241177
16:00−24nw7106996 0.0 10231218
19:00−28nw467858 0.0 1024101
22:00−30nw348036 0.0 102651
3 march, wed
wed301:00−31nw337611 0.0 102535
04:00−32nw33736 0.0 102532
07:00−32nw33680 0.0 102429
10:00−26nw33660 0.0 1023174
13:00−21nw34530 0.0 1019654
16:00−20nnw335613 0.0 1017455
19:00−24nnw2369100 0.0 101629
22:00−25nnw2269100 0.0 101628